• In Netherlands
  • List of Countries
  • For 7 days
  • Water Temperature
  • Satellite Maps
  • Weather Map
  • Weather Widgets
  • user-avatar
    Login

    Hourly Weather Gjirokaster

    Today, 28 April, Friday

    Time Temperature Precipitation Wind Pressure Humidity
    00:00 +5°C° 0 mm 2 mps 651 mmHg 73%
    01:00 +5°C° 0 mm 2 mps 651 mmHg 72%
    02:00 +5°C° 0 mm 2 mps 651 mmHg 71%
    03:00 +5°C° 0 mm 2 mps 650 mmHg 69%
    04:00 +4°C° 0 mm 2 mps 650 mmHg 68%
    05:00 +7°C° 0 mm 2 mps 651 mmHg 60%
    06:00 +9°C° 0 mm 2 mps 652 mmHg 52%
    07:00 +12°C° 0 mm 2 mps 652 mmHg 45%
    08:00 +14°C° 0 mm 2 mps 653 mmHg 38%
    09:00 +16°C° 0 mm 3 mps 653 mmHg 32%
    10:00 +18°C° 0 mm 3 mps 653 mmHg 26%
    11:00 +18°C° 0 mm 3 mps 653 mmHg 26%
    12:00 +19°C° 0 mm 3 mps 653 mmHg 27%
    13:00 +19°C° 0 mm 3 mps 653 mmHg 27%
    14:00 +19°C° 0 mm 3 mps 653 mmHg 29%
    15:00 +18°C° 0 mm 3 mps 652 mmHg 32%
    16:00 +18°C° 0 mm 3 mps 652 mmHg 34%
    17:00 +14°C° 0 mm 3 mps 652 mmHg 41%
    18:00 +11°C° 0 mm 3 mps 651 mmHg 49%
    19:00 +9°C° 0 mm 3 mps 650 mmHg 56%
    20:00 +9°C° 0 mm 3 mps 650 mmHg 55%
    21:00 +9°C° 0 mm 3 mps 651 mmHg 54%
    22:00 +8°C° 0 mm 3 mps 651 mmHg 53%
    23:00 +8°C° 0 mm 3 mps 651 mmHg 50%

    Tomorrow, 29 April, Saturday

    Time Temperature Precipitation Wind Pressure Humidity
    00:00 +8°C° 0 mm 3 mps 650 mmHg 48%
    01:00 +8°C° 0 mm 3 mps 650 mmHg 45%
    02:00 +8°C° 0 mm 3 mps 650 mmHg 45%
    03:00 +8°C° 0 mm 3 mps 649 mmHg 44%
    04:00 +7°C° 0 mm 2 mps 649 mmHg 44%
    05:00 +9°C° 0 mm 3 mps 649 mmHg 42%
    06:00 +11°C° 0 mm 3 mps 650 mmHg 41%
    07:00 +13°C° 0 mm 3 mps 650 mmHg 40%
    08:00 +14°C° 0 mm 3 mps 650 mmHg 37%
    09:00 +16°C° 0 mm 3 mps 651 mmHg 33%
    10:00 +18°C° 0 mm 3 mps 651 mmHg 29%
    11:00 +18°C° 0 mm 3 mps 651 mmHg 31%
    12:00 +17°C° 0 mm 3 mps 650 mmHg 33%
    13:00 +17°C° 0 mm 3 mps 650 mmHg 35%
    14:00 +16°C° 0.1 mm 3 mps 650 mmHg 38%
    15:00 +16°C° 0.1 mm 2 mps 650 mmHg 41%
    16:00 +15°C° 0.1 mm 2 mps 649 mmHg 45%
    17:00 +13°C° 0 mm 2 mps 649 mmHg 52%
    18:00 +10°C° 0 mm 3 mps 648 mmHg 58%
    19:00 +8°C° 0 mm 3 mps 647 mmHg 65%
    20:00 +8°C° 0 mm 3 mps 647 mmHg 66%
    21:00 +8°C° 0 mm 3 mps 648 mmHg 66%
    22:00 +8°C° 0 mm 2 mps 648 mmHg 66%
    23:00 +7°C° 0 mm 2 mps 647 mmHg 67%

    Day after tomorrow, 30 April, Sunday

    Time Temperature Precipitation Wind Pressure Humidity
    00:00 +7°C° 0 mm 2 mps 647 mmHg 68%
    01:00 +7°C° 0 mm 2 mps 647 mmHg 69%
    02:00 +5°C° 0 mm 3 mps 647 mmHg 70%
    03:00 +5°C° 0 mm 3 mps 647 mmHg 72%
    04:00 +4°C° 0 mm 3 mps 647 mmHg 73%
    05:00 +7°C° 0 mm 3 mps 647 mmHg 68%
    06:00 +9°C° 0 mm 3 mps 648 mmHg 62%
    07:00 +12°C° 0 mm 3 mps 649 mmHg 57%
    08:00 +13°C° 0 mm 3 mps 649 mmHg 52%
    09:00 +16°C° 0 mm 3 mps 649 mmHg 46%
    10:00 +18°C° 0 mm 4 mps 650 mmHg 40%
    11:00 +18°C° 0.3 mm 4 mps 650 mmHg 42%
    12:00 +18°C° 0.3 mm 4 mps 649 mmHg 44%
    13:00 +17°C° 0.3 mm 5 mps 649 mmHg 46%
    14:00 +17°C° 0.7 mm 4 mps 649 mmHg 51%
    15:00 +15°C° 0.7 mm 4 mps 649 mmHg 56%
    16:00 +14°C° 0.7 mm 4 mps 648 mmHg 61%
    17:00 +12°C° 0.3 mm 4 mps 648 mmHg 69%
    18:00 +10°C° 0.3 mm 4 mps 648 mmHg 77%
    19:00 +9°C° 0.3 mm 3 mps 648 mmHg 86%
    20:00 +8°C° 0.3 mm 3 mps 648 mmHg 87%
    21:00 +8°C° 0.3 mm 3 mps 648 mmHg 88%
    22:00 +7°C° 0.3 mm 3 mps 648 mmHg 90%
    23:00 +7°C° 0.1 mm 3 mps 648 mmHg 90%

    1 May, Monday

    Time Temperature Precipitation Wind Pressure Humidity
    00:00 +7°C° 0.1 mm 3 mps 648 mmHg 91%
    01:00 +6°C° 0.1 mm 2 mps 648 mmHg 91%
    02:00 +5°C° 0.1 mm 3 mps 648 mmHg 92%
    03:00 +5°C° 0.1 mm 3 mps 648 mmHg 92%
    04:00 +5°C° 0.1 mm 3 mps 648 mmHg 93%
    05:00 +7°C° 0 mm 2 mps 648 mmHg 87%
    06:00 +9°C° 0 mm 2 mps 649 mmHg 81%
    07:00 +12°C° 0 mm 2 mps 649 mmHg 76%
    08:00 +13°C° 0.3 mm 2 mps 650 mmHg 71%
    09:00 +13°C° 0.3 mm 3 mps 650 mmHg 66%
    10:00 +16°C° 0.3 mm 3 mps 650 mmHg 61%
    11:00 +16°C° 0.8 mm 3 mps 650 mmHg 62%
    12:00 +16°C° 0.8 mm 3 mps 650 mmHg 62%
    13:00 +15°C° 0.8 mm 4 mps 650 mmHg 62%
    14:00 +14°C° 0.5 mm 3 mps 650 mmHg 65%
    15:00 +14°C° 0.5 mm 3 mps 650 mmHg 67%
    16:00 +13°C° 0.5 mm 3 mps 650 mmHg 69%
    17:00 +12°C° 0.3 mm 3 mps 650 mmHg 76%
    18:00 +10°C° 0.3 mm 3 mps 649 mmHg 83%
    19:00 +8°C° 0.3 mm 2 mps 649 mmHg 90%
    20:00 +7°C° 0 mm 2 mps 649 mmHg 91%
    21:00 +6°C° 0 mm 2 mps 649 mmHg 92%
    22:00 +7°C° 0 mm 1 mps 649 mmHg 93%
    23:00 +6°C° 0 mm 1 mps 649 mmHg 93%

    2 May, Tuesday

    Time Temperature Precipitation Wind Pressure Humidity
    00:00 +6°C° 0 mm 1 mps 648 mmHg 93%
    01:00 +5°C° 0 mm 1 mps 648 mmHg 94%
    02:00 +4°C° 0 mm 2 mps 648 mmHg 94%
    03:00 +4°C° 0 mm 2 mps 648 mmHg 93%
    04:00 +4°C° 0 mm 2 mps 648 mmHg 93%
    05:00 +6°C° 0 mm 2 mps 649 mmHg 87%
    06:00 +9°C° 0 mm 1 mps 649 mmHg 80%
    07:00 +12°C° 0 mm 1 mps 650 mmHg 73%
    08:00 +13°C° 0 mm 2 mps 651 mmHg 64%
    09:00 +15°C° 0 mm 2 mps 651 mmHg 54%
    10:00 +17°C° 0 mm 2 mps 651 mmHg 45%
    11:00 +17°C° 0.1 mm 3 mps 651 mmHg 44%
    12:00 +17°C° 0.1 mm 3 mps 651 mmHg 43%
    13:00 +17°C° 0.1 mm 4 mps 651 mmHg 42%
    14:00 +17°C° 0.1 mm 4 mps 651 mmHg 44%
    15:00 +15°C° 0.1 mm 4 mps 651 mmHg 46%
    16:00 +15°C° 0.1 mm 4 mps 650 mmHg 48%
    17:00 +12°C° 0 mm 3 mps 650 mmHg 58%
    18:00 +10°C° 0 mm 3 mps 649 mmHg 68%
    19:00 +7°C° 0 mm 3 mps 649 mmHg 78%
    20:00 +7°C° 0 mm 2 mps 649 mmHg 80%
    21:00 +6°C° 0 mm 2 mps 649 mmHg 81%
    22:00 +5°C° 0 mm 2 mps 649 mmHg 82%
    23:00 +5°C° 0 mm 2 mps 649 mmHg 82%

    3 May, Wednesday

    Time Temperature Precipitation Wind Pressure Humidity
    00:00 +5°C° 0 mm 2 mps 649 mmHg 82%
    01:00 +5°C° 0 mm 2 mps 649 mmHg 82%
    02:00 +5°C° 0 mm 1 mps 649 mmHg 82%
    03:00 +5°C° 0 mm 1 mps 648 mmHg 83%
    04:00 +4°C° 0 mm 1 mps 648 mmHg 83%
    05:00 +7°C° 0 mm 1 mps 649 mmHg 75%
    06:00 +9°C° 0 mm 1 mps 650 mmHg 66%
    07:00 +12°C° 0 mm 1 mps 650 mmHg 58%
    08:00 +13°C° 0 mm 1 mps 651 mmHg 53%
    09:00 +15°C° 0 mm 2 mps 651 mmHg 49%
    10:00 +16°C° 0 mm 2 mps 652 mmHg 44%
    11:00 +17°C° 0 mm 2 mps 652 mmHg 44%
    12:00 +17°C° 0 mm 3 mps 652 mmHg 43%
    13:00 +17°C° 0 mm 3 mps 652 mmHg 43%
    14:00 +17°C° 0 mm 3 mps 651 mmHg 46%
    15:00 +16°C° 0 mm 3 mps 651 mmHg 49%
    16:00 +16°C° 0 mm 2 mps 651 mmHg 52%
    17:00 +13°C° 0 mm 2 mps 650 mmHg 63%
    18:00 +11°C° 0 mm 1 mps 650 mmHg 74%
    19:00 +8°C° 0 mm 1 mps 649 mmHg 85%
    20:00 +7°C° 0 mm 1 mps 649 mmHg 87%
    21:00 +7°C° 0 mm 1 mps 649 mmHg 88%
    22:00 +5°C° 0 mm 0 mps 649 mmHg 90%
    23:00 +5°C° 0 mm 0 mps 649 mmHg 90%
    Show more